Weather History for CWVU - March, 2013

Change the Weather History Date:

Monday, March 18, 2013

  Actual Average Record
Temperature  
Mean Temperature 23 °F -  
Max Temperature 30 °F - - ()
Min Temperature 16 °F - - ()
Degree Days  
Heating Degree Days 42    
Moisture  
Dew Point 8 °F    
Average Humidity 51    
Maximum Humidity 65    
Minimum Humidity 24    
Precipitation  
Precipitation 0.00 in - - ()
Sea Level Pressure  
Sea Level Pressure 30.34 in    
Wind  
Wind Speed 25 mph ()    
Max Wind Speed 36 mph    
Max Gust Speed 43 mph    
T = Trace of Precipitation, MM = Missing Value Source: Averaged Metar Reports

Daily Weather History Graph

Daily Weather History Graph

Search for Another Location

Airport or City:

Trip Planner

Search our weather history database for the weather conditions in past years. The results will help you decide how hot, cold, wet, or windy it might be!

Date:

Astronomy

Mar. 18, 2013 Rise Set
Actual Time 7:31 AM ADT 7:35 PM ADT
Civil Twilight 7:02 AM ADT 8:04 PM ADT
Nautical Twilight 6:29 AM ADT 8:38 PM ADT
Astronomical Twilight 5:54 AM ADT 9:13 PM ADT
Moon 11:15 AM ADT (3/18) 1:44 AM ADT (3/18)
Length of Visible Light 13h 01m
Length of Day
12h 03m
Waxing Crescent, 40% of the Moon is Illuminated
Mar 18
Waxing Crescent
Mar 19
First Quarter
Mar 27
Full
Apr 3
Last Quarter
Apr 10
New

Hourly Weather History & Observations

Time (ADT) Temp. Windchill Dew Point Humidity Pressure Visibility Wind Dir Wind Speed Gust Speed Precip Events Conditions
12:00 AM 21.4 °F 1.9 °F 8.2 °F 57% 30.20 in - WNW 35.7 mph 41.4 mph N/A   Unknown
1:00 AM 20.3 °F 0.4 °F 5.2 °F 52% 30.23 in - WNW 35.7 mph 41.4 mph N/A   Unknown
2:00 AM 19.9 °F 1.0 °F 6.6 °F 56% 30.26 in - WNW 31.1 mph 38.0 mph N/A   Unknown
3:00 AM 20 °F - 7 °F 42% 30.28 in - WNW 33.4 mph - -  
3:00 AM 19.6 °F -0.1 °F 6.8 °F 58% 30.28 in - WNW 33.4 mph 42.6 mph N/A   Unknown
4:00 AM 19.2 °F -0.6 °F 7.3 °F 60% 30.28 in - WNW 33.4 mph 39.1 mph N/A   Unknown
5:00 AM 17.8 °F -2.5 °F 6.4 °F 61% 30.31 in - WNW 33.4 mph 42.6 mph N/A   Unknown
6:00 AM 17.6 °F -1.9 °F 6.4 °F 62% 30.32 in - WNW 29.9 mph 36.8 mph N/A   Unknown
7:00 AM 17.2 °F -2.4 °F 7.0 °F 64% 30.34 in - NW 29.9 mph 38.0 mph N/A   Unknown
8:00 AM 17.8 °F -1.4 °F 7.7 °F 65% 30.37 in - NW 28.8 mph 34.5 mph N/A   Unknown
9:00 AM 17 °F - 6 °F 50% 30.39 in - NW 27.6 mph - -  
9:00 AM 17.4 °F -1.5 °F 6.4 °F 62% 30.39 in - NW 27.6 mph 34.5 mph N/A   Unknown
10:00 AM 18.5 °F -0.4 °F 6.3 °F 59% 30.40 in - NW 28.8 mph 35.7 mph N/A   Unknown
11:00 AM 19.0 °F 1.6 °F 5.0 °F 54% 30.40 in - WNW 24.2 mph - N/A   Unknown
12:00 PM 21.4 °F 6.2 °F 8.6 °F 58% 30.40 in - WNW 19.6 mph 26.5 mph N/A   Unknown
1:00 PM 22.6 °F 8.3 °F 6.8 °F 51% 30.39 in - WNW 18.4 mph 24.2 mph N/A   Unknown
2:00 PM 23.7 °F 10.5 °F 6.1 °F 47% 30.39 in - West 16.1 mph 24.2 mph N/A   Unknown
3:00 PM 26 °F - 10 °F 36% 30.37 in - West 20.7 mph - -  
3:00 PM 25.7 °F 11.5 °F 9.7 °F 51% 30.37 in - West 20.7 mph 27.6 mph N/A   Unknown
4:00 PM 27.3 °F 13.6 °F 7.2 °F 43% 30.35 in - West 20.7 mph 27.6 mph N/A   Unknown
5:00 PM 28.8 °F 15.9 °F 10.4 °F 46% 30.34 in - West 19.6 mph 25.3 mph N/A   Unknown
6:00 PM 29.3 °F 17.0 °F 10.6 °F 46% 30.33 in - West 18.4 mph 24.2 mph N/A   Unknown
7:00 PM 29.1 °F 16.7 °F 9.9 °F 45% 30.33 in - West 18.4 mph - N/A   Unknown
8:00 PM 29.8 °F 19.8 °F 8.2 °F 40% 30.33 in - West 12.7 mph - N/A   Unknown
9:00 PM 31 °F - 8 °F 24% 30.33 in - WNW 18.4 mph - -  
9:00 PM 30.7 °F 18.8 °F 8.4 °F 39% 30.33 in - WNW 18.4 mph - N/A   Unknown
10:00 PM 30.4 °F 20.0 °F 10.2 °F 43% 30.33 in - NW 13.8 mph - N/A   Unknown
11:00 PM 30.4 °F 19.5 °F 10.0 °F 43% 30.36 in - WNW 15.0 mph - N/A   Unknown